www.pogodaiklimat.ru

Погода и климат >> Архив погоды >> Россия >> Краснодарский край >> Тамань


ПОГОДА в Тамани

  • Прогноз погоды в Тамани
  • Монитор погоды в Тамани

АРХИВ ПОГОДЫ в Тамани

Время (UTC), дата Ветер
(напр.,м/с)
 
Видим.   Явления Облачность Т
(С)
Тd
(С)
f
(%)
Тe
(С)
Тes
(С)
Комфортность P
(гПа)
Po
(гПа)
Тmin
(С)
Tmax
(С)
R
(мм)
R24
(мм)
S
(см)
09 19.04 СВ 8-14
{15}
20 км дождь 10/0 600 м
[As op]
+4.7 +2.0 83 -1 -1 1019.1 1017.1
12 19.04 СВ 8-14
{16}
20 км слаб. дождь 10/0 600 м
[As op]
+4.6 +2.4 86 -1 -1 1019.2 1017.2
15 19.04 СВ 6-13
{15}
4000 м слаб. дождь 10/0 600 м
[As op]
+5.4 +2.8 83 0 +1 1019.2 1017.2 +5.6 8
18 19.04 СВ 8-14
{14}
10 км слаб. дождь 10/8 600 м
[Frnb As op]
+7.6 +2.0 68 +3 +3 1019.2 1017.2
21 19.04 В 6-10
{14}
10 км слаб. дождь 10/8 600 м
[St As op]
+6.9 +0.5 64 +3 +3 1018.7 1016.8
00 20.04 В 5
{11}
10 км {дождь} 10/10 600 м
[Sc]
+6.2 +1.3 71 +2 +2 1018.6 1016.6
03 20.04 В 5
{10}
20 км 8/8 600 м
[Sc]
+5.5 -0.1 67 +1 +1 1018.5 1016.5 +5.4 3
06 20.04 В 7-11
{12}
20 км 3/1 600 м
[Sc Ci sp]
+7.7 +1.0 63 +3 +5 1019.1 1017.1 +5.4
09 20.04 В 6-12
{13}
20 км 8/8 600 м
[Sc]
+10.5 +0.8 51 +8 +9 1019.6 1017.6
12 20.04 В 4
{13}
20 км 10/10 600 м
[Sc]
+11.8 +0.4 45 +10 +10 1020.1 1018.1
15 20.04 В 3
{11}
20 км 6/6 1000 м
[Sc]
+11.9 +1.6 49 +11 +11 1020.2 1018.2 +12.0
18 20.04 В 3 10 км ясно +7.3 +0.6 62 +5 +5 1021.3 1019.3
21 20.04 В 3 10 км 1/1 1000 м
[Sc]
+6.5 +1.0 68 +4 +4 1021.1 1019.1
00 21.04 СВ 5 10 км 3/0
[Ci fib]
+7.9 +2.5 69 +4 +4 1020.2 1018.2
03 21.04 С 2 20 км 3/0
[Ci fib]
+8.0 +2.7 69 +6 +6 1019.5 1017.5 +6.3
06 21.04 СВ 7-11
{13}
20 км 3/0
[Ci fib]
+10.1 +1.6 56 +7 +9 1019.6 1017.6
09 21.04 СВ 6-12
{13}
20 км 4/0
[Ac trans Ci fib]
+11.4 +2.7 55 +9 +14 1019.7 1017.7
12 21.04 СВ 5-10
{12}
20 км 4/1 1000 м
[Sc Ci fib]
+12.9 +0.2 42 +11 +16 1019.1 1017.2
15 21.04 С 2
{11}
20 км 9/4 1000 м
[Sc Ac trans Ci fib]
+12.1 +4.8 61 +11 +12 1018.7 1016.7 +13.0
18 21.04 штиль 0 10 км 8/4 1000 м
[Sc Ac trans]
+9.0 +1.9 61 +9 +9 1020.0 1018.0
21 21.04 штиль 0 10 км 6/0
[Ac trans]
+6.8 +3.8 81 +6 +6 1020.5 1018.5
00 22.04 В 3 10 км 6/0
[Ac trans]
+8.1 +3.2 71 +6 +6 1020.1 1018.1
03 22.04 В 4 20 км 5/0
[Ac trans Ci fib]
+8.6 +3.5 70 +6 +6 1019.9 1017.9 +6.4
06 22.04 СВ 6-11
{12}
20 км 3/0
[Ci fib]
+10.3 +3.3 62 +7 +10 1020.6 1018.6
09 22.04 СВ 6-11
{12}
20 км 3/0
[Ci fib]
+11.6 +2.9 55 +9 +15 1020.9 1018.9
12 22.04 СВ 5 20 км 8/0
[Ci fib]
+13.8 +4.1 52 +12 +17 1020.9 1019.0
15 22.04 СВ 3 20 км 9/9 1000 м
[Sc]
+12.7 +6.2 65 +11 +12 1021.7 1019.8 +14.0
18 22.04 В 1 10 км 9/9 1000 м
[Sc]
+11.4 +6.2 70 +11 +11 1023.3 1021.4
21 22.04 штиль 0 10 км 8/8 1000 м
[Sc]
+10.5 +5.8 73 +10 +10 1023.9 1021.9
00 23.04 В 2 10 км 3/0
[Ci fib]
+8.6 +2.9 67 +7 +7 1024.2 1022.2
03 23.04 В 2 20 км ясно +7.6 +2.9 72 +6 +6 1025.3 1023.3 +7.5
06 23.04 СВ 4 20 км 3/0
[Ci fib]
+11.1 +3.8 61 +9 +14 1026.2 1024.2
09 23.04 СВ 5-10
{10}
20 км ясно +14.5 +1.3 41 +13 +22 1027.2 1025.2
12 23.04 В 1
{10}
20 км ясно +17.0 +3.8 41 +18 +31 опасность
простуды
1027.7 1025.8
15 23.04 З 1 20 км ясно +14.3 +7.2 62 +15 +17 1028.3 1026.3 +17.2
18 23.04 штиль 0 10 км ясно +10.6 +6.5 76 +10 +10 1029.0 1027.0
21 23.04 Ю 1 10 км ясно +8.3 +6.9 91 +7 +7 1029.3 1027.3
00 24.04 Ю 1 10 км ясно +7.2 +6.3 94 +6 +6 1029.4 1027.4
03 24.04 штиль 0 50 м туман ?/? +8.9 +8.2 95 +8 +8 1029.8 1027.8 +5.9
06 24.04 Ю 1 4000 м {туман} 3/3 1000 м
[Cu med, cong]
+12.9 +8.4 74 +13 +19 1030.3 1028.3
09 24.04 Ю 1 20 км 1/0
[Ci sp]
+15.0 +7.8 62 +16 +34 опасность
простуды
1030.1 1028.2
12 24.04 ЮЗ 2 20 км ясно +15.4 +7.8 60 +15 +27 опасность
простуды
1029.9 1027.9
15 24.04 штиль 0 20 км ясно +15.9 +5.8 51 +16 +18 1028.8 1026.9 +16.4
18 24.04 ЮЗ 2 10 км ясно +10.5 +8.3 86 +9 +9 1028.6 1026.7
21 24.04 штиль 0 10 км ясно +8.1 +6.4 89 +7 +7 1028.5 1026.6
00 25.04 ЮЗ 1 10 км ясно +6.2 +4.6 89 +5 +5 1028.4 1026.4
03 25.04 штиль 0 20 км ясно +5.0 +3.5 90 +4 +4 1028.2 1026.2 +5.0
06 25.04 штиль 0 20 км ясно +12.8 +7.8 72 +12 +23 опасность
простуды
1028.6 1026.6
09 25.04 штиль 0 20 км ясно +17.7 +8.1 53 +18 +40 опасность
простуды
1028.2 1026.3
12 25.04 ЮЗ 3 20 км ясно +18.3 +3.3 37 +19 +28 1027.3 1025.4
15 25.04 ЮЗ 2 20 км ясно +17.3 +1.5 34 +18 +19 1025.9 1023.9 +19.9
18 25.04 штиль 0 10 км ясно +11.7 +4.4 61 +11 +11 1025.9 1023.9
21 25.04 штиль 0 10 км ясно +8.9 +5.0 77 +8 +8 1024.9 1022.9
00 26.04 ЮЗ 1 10 км ясно +7.2 +5.4 88 +6 +6 1024.2 1022.2
03 26.04 штиль 0 20 км ясно +5.9 +4.5 91 +5 +5 1023.6 1021.6 +5.7

 

Местоположение метеостанции Тамань (Краснодарский край, Россия): широта 45.22 долгота 36.72 высота над уровнем моря 17 м.

В архиве по умолчанию представлена погода в Тамани за последнюю неделю. Архивные данные за месяц целиком и за предыдущие месяцы, начиная с января 2011 года, Вы можете получить, выбрав интересующий диапазон дат из раскрывающегося списка и нажав кнопку "Ввод!".


*Определитесь, кто Вы:
робот инопланетянин человек

Внимание! Время в таблицах - всемирное. Для получения местного времени необходимо прибавить поправку, которая равна 3 ч.

Смотрите также архив погоды в соседних городах и на ближайших метеорологических станциях:

Погода в Опасном (Крым, Россия) (18 км)
Погода в Керчи (Крым, Россия) (28 км)
Погода в Темрюке (Краснодарский край, Россия) (53 км)
Погода в Анапе (Краснодарский край, Россия) (58 км)
Погода в Мысовом (Крым, Россия) (75 км)
Погода в Новороссийске (Краснодарский край, Россия) (105 км)
Погода в Владиславовке (Крым, Россия) (105 км)
Погода в Крымске (Краснодарский край, Россия) (106 км)
Погода в Феодосии (Крым, Россия) (107 км)
Погода в Славянске-на-Кубани (Краснодарский край, Россия) (110 км)

Пояснения к столбцам:

Ветер - указаны скорость ветра в м/с - средняя за 10 мин, порывы в срок и между сроками (в фигурных скобках) и направление, откуда дует ветер: С - северный, СВ - северо-восточный, В - восточный, ЮВ - юго-восточный, Ю - южный, ЮЗ - юго-западный, З - западный, СЗ - северо-западный.
Видимость - горизонтальная дальность видимости в метрах или километрах. При видимости от 1 до 10 км при отсутствии осадков обычно наблюдается дымка, при ухудшении видимости до 1 км и менее - туман. В сухую погоду видимость может ухудшаться дымом, пылью или мглою.
Явления - указаны атмосферные явления, наблюдавшиеся в срок или в последний час перед сроком; фигурными скобками обозначены явления, наблюдавшиеся между сроками (за 1-3 часа до срока); квадратными скобками обозначены град или гололедные отложения с указанием их диаметра в мм.
Облачность - указаны через наклонную черту общая и нижняя облачность в баллах и высота нижней границы облаков в метрах; квадратными скобками обозначены формы облаков: Ci - перистые, Cs - перисто-слоистые, Cc - перисто-кучевые, Ac - высококучевые, As - высокослоистые, Sc - слоисто-кучевые, Ns - слоисто-дождевые, Cu - кучевые, Cb - кучево-дождевые. Подробнее классификацию облаков см. в Атласе облаков (PDF).
T - Температура воздуха - температура, измеренная на высоте 2 м над землей.
Td - Температура точки росы - температура, при понижении до которой содержащийся в воздухе водяной пар достигнет насыщения.
f - Относительная влажность воздуха - влажноcть воздуха, измеренная на высоте 2 м над землей.
Te - Эффективная температура - температура, которую ощущает одетый по сезону человек в тени. Характеристика душности погоды. При расчете учитывается влияние влажности воздуха и скорости ветра на теплоощущения человека.
Tes - Эффективная температура на солнце - температура, которую ощущает человек, с поправкой на солнечный нагрев. Характеристика знойности погоды. Зависит от высоты солнца над горизонтом, облачности и скорости ветра. Ночью, в пасмурную погоду, а также при ветре 12 м/с и более поправка равна нулю.
P - Атмосферное давление - приведенное к уровню моря атмосферное давление.
Po - Атмосферное давление - измеренное на уровне метеостанции атмосферное давление.
Tmin - Минимальная температура - минимум температуры воздуха на высоте 2 м над землей.
Tmax - Максимальная температура - максимум температуры воздуха на высоте 2 м над землей.
R - Количество осадков - Количество выпавших осадков за период времени, мм. При наведении курсора мыши на число - период времени, за который выпало указанное количество осадков.
R24 - Количество осадков - Количество выпавших осадков за 24 часа, мм.
S - Снежный покров - Высота снежного покрова, см. При наведении курсора мыши на число - состояние снежного покрова и степень покрытия местности в баллах.